Date,TemperatureHighF,TemperatureAvgF,TemperatureLowF,DewpointHighF,DewpointAvgF,DewpointLowF,HumidityHigh,HumidityAvg,HumidityLow,PressureMaxIn,PressureMinIn,WindSpeedMaxMPH,WindSpeedAvgMPH,GustSpeedMaxMPH,PrecipitationSumIn
2013-1-1,39.0,34.8,27.5,32.8,28.5,22.7,84,78,68,29.39,29.05,13,3,26,0.00
2013-1-2,38.1,32.7,26.1,29.6,26.7,23.3,90,79,67,29.38,29.13,9,1,17,0.00
2013-1-3,39.0,36.4,31.8,32.2,30.0,25.8,86,78,66,29.46,29.34,10,3,19,0.00
2013-1-4,32.4,27.8,21.9,28.2,25.1,19.6,93,90,83,29.71,29.46,4,0,6,0.00
2013-1-5,34.3,31.0,26.1,27.7,25.2,23.1,92,79,69,29.61,29.14,14,4,21,0.00
2013-1-6,35.1,31.1,28.0,28.9,26.2,23.1,88,82,73,29.23,28.88,11,2,15,0.00
2013-1-7,33.3,30.1,21.0,29.5,23.6,17.0,87,77,67,29.27,28.90,10,2,16,0.00
2013-1-8,26.4,17.7,9.3,21.2,14.5,5.9,91,87,79,29.90,29.27,3,1,4,0.00
2013-1-9,18.5,10.6,4.1,15.6,7.3,0.4,88,86,84,29.99,29.83,24,1,24,0.00
2013-1-10,24.8,22.4,18.5,22.3,20.1,15.6,92,90,88,30.05,29.83,6,0,10,0.00
2013-1-11,28.2,26.4,24.3,25.7,23.9,21.7,92,90,87,30.04,29.78,6,1,11,0.00
2013-1-12,35.8,30.1,24.3,34.2,28.4,-36.9,95,93,92,30.01,29.69,4,1,7,0.01
2013-1-13,37.4,34.6,33.6,36.1,33.3,32.3,96,95,94,29.77,29.51,4,1,8,0.00
2013-1-14,41.2,35.8,29.5,36.9,31.1,20.6,95,83,66,29.87,29.39,19,5,30,0.00
2013-1-15,33.1,28.5,23.5,22.8,19.5,16.3,84,69,58,30.11,29.87,18,4,27,0.00
2013-1-16,26.4,23.3,21.9,21.4,20.1,18.9,90,87,81,30.07,29.59,5,1,8,0.00
2013-1-17,22.1,18.3,11.7,19.9,14.9,8.1,91,86,77,29.85,29.51,2,0,4,0.00
2013-1-18,14.9,8.4,-1.8,9.8,4.2,-5.9,86,82,78,30.11,29.85,5,1,16,0.00
2013-1-19,26.6,20.7,13.3,20.7,15.6,8.5,84,80,75,30.12,29.77,16,5,24,0.00
2013-1-20,31.1,28.2,22.6,28.1,24.6,20.2,92,86,78,29.78,29.71,11,4,31,0.00
2013-1-21,35.4,27.9,20.3,27.1,23.0,18.0,93,82,71,29.79,29.54,11,2,21,0.00
2013-1-22,36.7,35.5,33.6,28.4,27.0,25.4,78,71,67,29.55,29.30,10,3,16,0.00
2013-1-23,39.6,31.2,26.1,29.9,25.6,23.0,90,80,67,29.99,29.16,8,1,11,0.00
2013-1-24,38.8,30.6,24.4,29.9,26.2,21.5,91,84,69,29.39,29.23,13,3,21,0.00
2013-1-25,36.5,21.2,-2.4,31.2,10.7,-35.6,82,64,40,29.56,29.21,24,4,24,0.00
2013-1-26,9.0,-4.4,-11.7,-4.7,-12.0,-17.0,80,70,45,29.80,29.56,6,1,9,0.00
2013-1-27,4.6,-8.5,-18.4,-6.1,-18.0,-23.9,76,63,42,30.08,29.80,8,2,12,0.00
2013-1-28,7.5,-3.2,-18.2,3.3,-10.8,-27.9,82,69,48,30.09,29.70,13,3,22,0.00
2013-1-29,14.9,10.5,7.5,10.6,5.8,2.5,84,81,78,29.74,29.63,14,4,22,0.00
2013-1-30,30.6,23.5,14.7,28.8,20.4,10.6,93,88,82,29.74,29.53,8,3,13,0.00
2013-1-31,31.6,29.8,22.1,30.1,27.1,-26.0,94,92,10,29.83,29.59,3,0,4,0.00